Regional Weather Roundup
Issued by NWS Sioux Falls, SD

Home | Current Version | Previous Version | Text Only | Print | Product List | Glossary On
Versions: 1 2 3 4 5 6 7 8 9 10 11 12 13 14 15 16 17 18 19 20 21 22 23 24 25 26 27 28 29 30 31 32 33 34 35 36 37 38 39 40 41 42 43 44 45 46 47 48 49 50
000
ASUS43 KFSD 250210
RWRFSD

WEATHER ROUNDUP FOR SE SOUTH DAKOTA/SW MINNESOTA/NW IOWA
NATIONAL WEATHER SERVICE SIOUX FALLS SD
800 PM CST WED DEC 24 2014

NOTE: "FAIR" INDICATES FEW OR NO CLOUDS BELOW 12,000 FEET WITH NO
SIGNIFICANT WEATHER AND OR OBSTRUCTIONS TO VISIBILITY.


SDZ038>040-050-052>070-250300-
SOUTHEAST SOUTH DAKOTA

CITY           SKY/WX    TMP DP  RH WIND       PRES   REMARKS
CHAMBERLAIN    PTCLDY    21  19  90 SE6       29.53F WCI  14
HURON          PTCLDY    25  24  96 S9        29.56F WCI  15
MADISON        CLOUDY    25  25 100 S9        29.59S WCI  15
MITCHELL       CLEAR     28  25  88 S14       29.58F WCI  17
SIOUX FALLS    CLOUDY    26  25  96 SW9       29.62F WCI  17
WINNER         FAIR      35  23  61 SW14      29.50F WCI  26
YANKTON        CLEAR     25  21  86 E6        29.64F WCI  18
$$

MNZ071-072-080-081-089-090-097-098-250300-
SOUTHWEST MINNESOTA

CITY           SKY/WX    TMP DP  RH WIND       PRES   REMARKS
FAIRMONT       CLOUDY    30  25  80 SW12      29.64S WCI  21
JACKSON        CLOUDY    28  28 100 SW13      29.64R WCI  18
LUVERNE        CLOUDY    28  27  93 SW10      29.64F FOG     WCI  19
MARSHALL       CLOUDY    27  23  86 SW9       29.60F WCI  17
MONTEVIDEO     CLOUDY    28  28 100 SW8       29.60F WCI  20
PIPESTONE      CLOUDY    25  25 100 SW8       29.59F FOG     WCI  16
REDWOOD FALLS  CLOUDY    30  27  88 SW14      29.62S WCI  19
TRACY          CLOUDY    28  27  95 SW14      29.61F WCI  17
WINDOM         CLOUDY    27  27 100 SW13      29.62S WCI  16
WORTHINGTON    CLOUDY    25 -20  13 SW15      29.64R WCI  12
$$

IAZ001>003-012>014-020>022-031-032-NEZ013-014-SDZ071-250300-
NORTHWEST IOWA

CITY           SKY/WX    TMP DP  RH WIND       PRES   REMARKS
CHEROKEE       CLOUDY    27  27 100 SW9       29.69S FOG     WCI  17
DENISON        CLOUDY    28  28 100 SW10      29.69F WCI  19
ESTHERVILLE    CLOUDY    27  26  96 SW14      29.65S WCI  16
LE MARS        CLOUDY    28  27  93 SW12G17   29.68F WCI  18
ORANGE CITY    CLOUDY    27  25  93 SW10      29.65F WCI  17
SHELDON        CLOUDY    27  27 100 SW10      29.65S WCI  17
SIOUX CITY     MOCLDY    28  25  88 S7        29.70F WCI  21
SPENCER        CLOUDY    27  25  92 SW12      29.66F FOG     WCI  17
STORM LAKE     CLOUDY    27  27 100 SW15      29.68F FOG     WCI  15
$$

ABBREVIATIONS USED IN REMARKS
   TC - TEMPERATURE IN CELSIUS
  WCI - WIND CHILL INDEX
   HX - HEAT INDEX
  VSB - VISIBILITY



USA.gov is the U.S. government's official web portal to all federal, state and local government web resources and services.